When you browse on this site, cookies collect data to enhance your experience and personalize the content and advertising you see.
Visit our Privacy Policy to learn more. By continuing to use the site, you agree to this use of cookies and data.
  • In Hungary
  • List of Countries
  • For 7 days
  • Water Temperature
  • Weather Map
  • News
  • Weather Widgets
  • user-avatar
    Login

    Hourly Weather Rodinskiy

    Today, 3 June, Wednesday

    Time Temperature Precipitation Wind Pressure Humidity
    00:00 +15°C° 0 mm 4 mps 751 mmHg 78%
    01:00 +14°C° 0 mm 4 mps 751 mmHg 79%
    02:00 +14°C° 0 mm 4 mps 751 mmHg 78%
    03:00 +14°C° 0 mm 4 mps 751 mmHg 77%
    04:00 +14°C° 0 mm 4 mps 751 mmHg 80%
    05:00 +15°C° 0 mm 4 mps 751 mmHg 79%
    06:00 +17°C° 0 mm 4 mps 751 mmHg 79%
    07:00 +17°C° 0 mm 5 mps 751 mmHg 78%
    08:00 +19°C° 0 mm 5 mps 751 mmHg 74%
    09:00 +21°C° 0 mm 5 mps 751 mmHg 70%
    10:00 +23°C° 0 mm 5 mps 751 mmHg 66%
    11:00 +26°C° 0 mm 5 mps 751 mmHg 59%
    12:00 +27°C° 0 mm 5 mps 751 mmHg 53%
    13:00 +28°C° 0 mm 6 mps 751 mmHg 47%
    14:00 +28°C° 0 mm 5 mps 751 mmHg 46%
    15:00 +28°C° 0 mm 5 mps 751 mmHg 45%
    16:00 +28°C° 0 mm 4 mps 751 mmHg 46%
    17:00 +27°C° 0 mm 4 mps 750 mmHg 51%
    18:00 +26°C° 0 mm 3 mps 750 mmHg 56%
    19:00 +25°C° 0 mm 3 mps 750 mmHg 61%
    20:00 +23°C° 0 mm 4 mps 750 mmHg 64%
    21:00 +22°C° 0 mm 6 mps 750 mmHg 66%
    22:00 +21°C° 0 mm 7 mps 750 mmHg 69%
    23:00 +20°C° 0 mm 7 mps 750 mmHg 68%

    Tomorrow, 4 June, Thursday

    Time Temperature Precipitation Wind Pressure Humidity
    00:00 +18°C° 0 mm 7 mps 750 mmHg 68%
    01:00 +18°C° 0 mm 7 mps 749 mmHg 68%
    02:00 +19°C° 0 mm 6 mps 749 mmHg 69%
    03:00 +19°C° 0 mm 6 mps 749 mmHg 70%
    04:00 +17°C° 0 mm 6 mps 749 mmHg 72%
    05:00 +18°C° 0.3 mm 7 mps 749 mmHg 72%
    06:00 +18°C° 0.3 mm 7 mps 749 mmHg 72%
    07:00 +18°C° 0.3 mm 7 mps 749 mmHg 72%
    08:00 +20°C° 0.3 mm 7 mps 749 mmHg 71%
    09:00 +20°C° 0.3 mm 7 mps 749 mmHg 70%
    10:00 +21°C° 0.3 mm 7 mps 750 mmHg 69%
    11:00 +21°C° 0.4 mm 7 mps 750 mmHg 71%
    12:00 +21°C° 0.4 mm 6 mps 750 mmHg 73%
    13:00 +21°C° 0.4 mm 6 mps 750 mmHg 75%
    14:00 +20°C° 0.4 mm 6 mps 750 mmHg 76%
    15:00 +20°C° 0.4 mm 7 mps 750 mmHg 77%
    16:00 +20°C° 0.4 mm 7 mps 750 mmHg 78%
    17:00 +20°C° 0.1 mm 7 mps 750 mmHg 77%
    18:00 +19°C° 0.1 mm 6 mps 750 mmHg 77%
    19:00 +19°C° 0.1 mm 6 mps 750 mmHg 77%
    20:00 +17°C° 0.6 mm 6 mps 750 mmHg 79%
    21:00 +17°C° 0.6 mm 7 mps 750 mmHg 81%
    22:00 +16°C° 0.6 mm 7 mps 751 mmHg 83%
    23:00 +16°C° 0.1 mm 8 mps 751 mmHg 82%

    Day after tomorrow, 5 June, Friday

    Time Temperature Precipitation Wind Pressure Humidity
    00:00 +15°C° 0.1 mm 8 mps 751 mmHg 81%
    01:00 +15°C° 0.1 mm 8 mps 751 mmHg 80%
    02:00 +15°C° 0 mm 8 mps 751 mmHg 77%
    03:00 +15°C° 0 mm 7 mps 752 mmHg 75%
    04:00 +14°C° 0 mm 7 mps 752 mmHg 73%
    05:00 +15°C° 0 mm 7 mps 752 mmHg 71%
    06:00 +16°C° 0 mm 7 mps 752 mmHg 69%
    07:00 +16°C° 0 mm 7 mps 753 mmHg 67%
    08:00 +17°C° 0 mm 7 mps 753 mmHg 65%
    09:00 +18°C° 0 mm 8 mps 753 mmHg 63%
    10:00 +20°C° 0 mm 8 mps 754 mmHg 61%
    11:00 +20°C° 0 mm 7 mps 754 mmHg 60%
    12:00 +21°C° 0 mm 7 mps 754 mmHg 59%
    13:00 +21°C° 0 mm 6 mps 754 mmHg 58%
    14:00 +22°C° 0 mm 6 mps 754 mmHg 56%
    15:00 +22°C° 0 mm 6 mps 754 mmHg 55%
    16:00 +23°C° 0 mm 6 mps 754 mmHg 54%
    17:00 +22°C° 0 mm 6 mps 754 mmHg 57%
    18:00 +21°C° 0 mm 6 mps 753 mmHg 61%
    19:00 +21°C° 0 mm 5 mps 753 mmHg 64%
    20:00 +19°C° 0 mm 6 mps 754 mmHg 64%
    21:00 +17°C° 0 mm 6 mps 754 mmHg 64%
    22:00 +16°C° 0 mm 6 mps 754 mmHg 64%
    23:00 +15°C° 0 mm 6 mps 754 mmHg 62%

    6 June, Saturday

    Time Temperature Precipitation Wind Pressure Humidity
    00:00 +15°C° 0 mm 6 mps 754 mmHg 59%
    01:00 +15°C° 0 mm 5 mps 754 mmHg 57%
    02:00 +14°C° 0.2 mm 5 mps 754 mmHg 59%
    03:00 +14°C° 0.2 mm 5 mps 754 mmHg 61%
    04:00 +14°C° 0.2 mm 5 mps 754 mmHg 63%
    05:00 +15°C° 0 mm 6 mps 754 mmHg 62%
    06:00 +15°C° 0 mm 6 mps 754 mmHg 62%
    07:00 +16°C° 0 mm 6 mps 754 mmHg 61%
    08:00 +16°C° 0 mm 6 mps 755 mmHg 62%
    09:00 +16°C° 0 mm 5 mps 755 mmHg 63%
    10:00 +17°C° 0 mm 5 mps 755 mmHg 64%
    11:00 +19°C° 0 mm 5 mps 755 mmHg 62%
    12:00 +21°C° 0 mm 6 mps 755 mmHg 59%
    13:00 +22°C° 0 mm 7 mps 755 mmHg 56%
    14:00 +22°C° 0 mm 7 mps 755 mmHg 57%
    15:00 +22°C° 0 mm 7 mps 755 mmHg 58%
    16:00 +22°C° 0 mm 7 mps 755 mmHg 59%
    17:00 +21°C° 0 mm 6 mps 755 mmHg 61%
    18:00 +21°C° 0 mm 5 mps 755 mmHg 64%
    19:00 +20°C° 0 mm 4 mps 755 mmHg 66%
    20:00 +19°C° 0 mm 4 mps 755 mmHg 72%
    21:00 +18°C° 0 mm 4 mps 756 mmHg 77%
    22:00 +17°C° 0 mm 4 mps 756 mmHg 83%
    23:00 +17°C° 0 mm 4 mps 756 mmHg 82%

    7 June, Sunday

    Time Temperature Precipitation Wind Pressure Humidity
    00:00 +15°C° 0 mm 4 mps 756 mmHg 82%
    01:00 +16°C° 0 mm 3 mps 756 mmHg 82%
    02:00 +16°C° 0.1 mm 3 mps 756 mmHg 80%
    03:00 +14°C° 0.1 mm 3 mps 756 mmHg 79%
    04:00 +15°C° 0.1 mm 2 mps 756 mmHg 77%
    05:00 +16°C° 0 mm 3 mps 756 mmHg 74%
    06:00 +17°C° 0 mm 4 mps 756 mmHg 70%
    07:00 +18°C° 0 mm 4 mps 756 mmHg 67%
    08:00 +19°C° 0 mm 4 mps 757 mmHg 61%
    09:00 +21°C° 0 mm 4 mps 757 mmHg 56%
    10:00 +23°C° 0 mm 4 mps 757 mmHg 51%
    11:00 +25°C° 0 mm 4 mps 757 mmHg 48%
    12:00 +26°C° 0 mm 4 mps 757 mmHg 45%
    13:00 +26°C° 0 mm 3 mps 757 mmHg 43%
    14:00 +27°C° 0 mm 3 mps 757 mmHg 43%
    15:00 +27°C° 0 mm 3 mps 756 mmHg 43%
    16:00 +27°C° 0 mm 3 mps 756 mmHg 44%
    17:00 +26°C° 0 mm 3 mps 756 mmHg 49%
    18:00 +25°C° 0 mm 2 mps 756 mmHg 54%
    19:00 +24°C° 0 mm 2 mps 756 mmHg 59%
    20:00 +23°C° 0 mm 1 mps 756 mmHg 62%
    21:00 +21°C° 0 mm 1 mps 756 mmHg 65%
    22:00 +20°C° 0 mm 1 mps 756 mmHg 68%
    23:00 +19°C° 0 mm 1 mps 756 mmHg 68%

    8 June, Monday

    Time Temperature Precipitation Wind Pressure Humidity
    00:00 +19°C° 0 mm 1 mps 756 mmHg 68%
    01:00 +18°C° 0 mm 1 mps 756 mmHg 68%
    02:00 +18°C° 0 mm 1 mps 756 mmHg 67%
    03:00 +18°C° 0 mm 1 mps 756 mmHg 65%
    04:00 +16°C° 0 mm 1 mps 756 mmHg 64%
    05:00 +17°C° 0 mm 2 mps 756 mmHg 62%
    06:00 +19°C° 0 mm 2 mps 756 mmHg 61%
    07:00 +20°C° 0 mm 2 mps 756 mmHg 59%
    08:00 +21°C° 0 mm 3 mps 756 mmHg 55%
    09:00 +24°C° 0 mm 3 mps 757 mmHg 51%
    10:00 +26°C° 0 mm 3 mps 757 mmHg 47%
    11:00 +27°C° 0 mm 4 mps 757 mmHg 43%
    12:00 +28°C° 0 mm 4 mps 757 mmHg 40%
    13:00 +29°C° 0 mm 5 mps 757 mmHg 36%
    14:00 +29°C° 0 mm 4 mps 757 mmHg 36%
    15:00 +29°C° 0 mm 4 mps 757 mmHg 36%
    16:00 +29°C° 0 mm 4 mps 756 mmHg 37%
    17:00 +27°C° 0 mm 4 mps 756 mmHg 43%
    18:00 +26°C° 0 mm 3 mps 756 mmHg 49%
    19:00 +25°C° 0 mm 3 mps 756 mmHg 55%
    20:00 +22°C° 0 mm 3 mps 757 mmHg 56%
    21:00 +21°C° 0 mm 3 mps 757 mmHg 57%
    22:00 +20°C° 0 mm 3 mps 757 mmHg 58%
    23:00 +19°C° 0 mm 3 mps 757 mmHg 58%
    Show more